Home > Weather > Knittelfeld > Past weeks

Flag for Austria Past Weather in Knittelfeld, Styria, Austria — Yesterday and Last 2 Weeks

Now
68 °F

Partly sunny.


Feels Like: 68 °F
Forecast: 59 / 80 °F
Wind: 5 mph from Southwest

Location: Zeltweg

Current Time: Jul 26, 2016 at 10:06:26 PM

Latest Report: Jul 26, 2016 at 8:50 PM


Visibility: 12 mi

Pressure: 30.09 "Hg (27.92 "Hg at 641m altitude)

Humidity: 83%

Dew Point: 63 °F

Location of KnittelfeldLocation

Past Weather in Knittelfeld — Graph

°F

Knittelfeld Temperature Yesterday

Maximum temperature yesterday: 75 °F (at 12:50 PM)
Minimum temperature yesterday: 63 °F (at 4:50 AM)
Average temperature yesterday: 68 °F

High & Low Weather Summary for the Past Weeks

 TemperatureHumidityPressure
High82 °F (Jul 20, 2:50 PM)100% (Jul 14, 5:50 AM)30.24 "Hg (Jul 14, 5:50 AM)
Low43 °F (Jul 15, 5:50 AM)32% (Jul 20, 3:50 PM)29.86 "Hg (Jul 13, 6:50 PM)
Average67 °F66%30.08 "Hg
* Reported Jul 11 8:50 PM — Jul 26 8:50 PM, Knittelfeld, Weather by CustomWeather, © 2016

Note: Actual official high and low records may vary slightly from our data, if they occured in-between our weather recording intervals... More about our weather records

Advertising

Knittelfeld Weather History for the Previous 24 Hours

Scroll right to see more
 ConditionsComfort  
Time TempWeatherWind HumidityBarometerVisibility
8:50 PM
Tue, Jul 26
68 °FPartly sunny.5 mph83%30.09 "Hg12 mi
7:50 PM72 °FPartly sunny.2 mph73%30.09 "Hg19 mi
6:50 PM72 °FPartly sunny.3 mph65%30.07 "Hg19 mi
5:50 PM72 °FPartly sunny.5 mph65%30.07 "Hg19 mi
4:50 PM73 °FScattered clouds.12 mph53%30.07 "Hg19 mi
3:50 PM77 °FPassing clouds.6 mph57%30.07 "Hg19 mi
2:50 PM81 °FScattered clouds.3 mph48%30.07 "Hg19 mi
1:50 PM79 °FPassing clouds.3 mph54%30.09 "Hg19 mi
12:50 PM77 °FScattered clouds.2 mph54%30.12 "Hg19 mi
11:50 AM73 °FScattered clouds.2 mph69%30.12 "Hg19 mi
10:50 AM70 °FScattered clouds.2 mph69%30.12 "Hg12 mi
9:50 AM66 °FPartly sunny.2 mph83%30.15 "Hg12 mi
8:50 AM63 °FPartly sunny.2 mph88%30.15 "Hg9 mi
7:50 AM63 °FPartly sunny.3 mph94%30.15 "Hg9 mi
6:50 AM63 °FPartly sunny.No wind88%30.15 "Hg6 mi
5:50 AM63 °FPassing clouds.1 mph88%30.15 "Hg6 mi
4:50 AM63 °FPassing clouds.2 mph88%30.15 "Hg6 mi
10:50 PM
Mon, Jul 25
64 °FPartly cloudy.2 mph88%30.15 "Hg12 mi
Weather by CustomWeather, © 2016

See weather overviewHow to use our weather pages